Location: New Town
(33.2710°N, 90.7534°W)
Time: 13:14:57
(UTC+00:00)

Explorer 11/Cluster Stage 4 - Pass Details

Date: 13 May 2021
Orbit: 467 x 1257 km, 28.8° (Epoch: 14 June)

Event Time Altitude Azimuth Distance (km) Brightness Sun altitude
Rises 05:32:51 0° 269° (W) 4,174 10.4 -37.9°
Enters shadow 05:35:48 10° 266° (W) 3,211 9.7 -38.0°
Reaches altitude 10° 05:35:56 10° 266° (W) 3,164 - -38.0°
Maximum altitude 05:43:41 57° 191° (S) 1,290 - -38.1°
Drops below altitude 10° 05:50:16 10° 114° (ESE) 2,704 - -38.2°
Sets 05:52:44 0° 110° (ESE) 3,533 - -38.3°
